Regional Weather Roundup
Issued by NWS Upton, NY

Current Version | Previous Version | Text Only | Print | Product List | Glossary Off
Versions: 1 2 3 4 5 6 7 8 9 10 11 12 13 14 15 16 17 18 19 20 21 22 23 24 25 26 27
000 ASUS41 KOKX 241005 RWROKX REGIONAL WEATHER ROUNDUP NATIONAL WEATHER SERVICE NEW YORK NY 600 AM EDT SUN JUL 24 2016 NOTE: "FAIR" INDICATES FEW OR NO CLOUDS BELOW 12,000 FEET WITH NO SIGNIFICANT WEATHER AND/OR OBSTRUCTIONS TO VISIBILITY. NYZ071-072-176-178-NJZ106-104-241100- NEW YORK CITY METRO AREA CITY SKY/WX TMP DP RH WIND PRES REMARKS Central Park CLEAR 76 59 55 NE5 29.99R LaGuardia APRT PTCLDY 77 61 57 NE3 29.95R Kennedy INTL PTCLDY 74 59 59 N7 29.96R Newark/Liberty CLEAR 74 60 61 N6 29.96R BRNX BOT. GARD N/A 72 59 64 E2 29.98R Wall St Helipt SUNNY 79 63 57 NE8 29.96R Teterboro CLEAR 74 60 61 CALM 29.95R $$ NYZ177-179-078>081-241100- LONG ISLAND NEW YORK CITY SKY/WX TMP DP RH WIND PRES REMARKS FARMINGDALE CLEAR 73 60 63 NW3 29.96R ISLIP PTCLDY 70 60 70 NW5 29.95R SHIRLEY CLEAR 66 60 81 CALM 29.96R RIVERHEAD NOT AVBL WESTHAMPTON CLEAR 60 56 86 CALM 29.96R SOUTHAMPTON N/A 66 63 88 CALM 29.91R BRIDGEHAMPTON N/A 66 63 88 CALM 29.93R EAST HAMPTON FAIR 61 59 91 CALM 29.94R MONTAUK POINT N/A 69 62 78 CALM 29.94S $$ NYZ052-065-067-241100- HUDSON VALLEY CITY SKY/WX TMP DP RH WIND PRES REMARKS WHITE PLAINS CLEAR 67 60 78 NW7 29.96R NEWBURGH CLEAR 64 63 94 CALM 30.00R MONTGOMERY CLEAR 61 59 93 CALM 29.99R POUGHKEEPSIE CLEAR 63 59 87 CALM 29.97R ALBANY PTCLDY 62 60 93 CALM 29.98R $$ NJZ001-105-106-008-010-013-015-019>022-104-241100- NEW JERSEY CITY SKY/WX TMP DP RH WIND PRES REMARKS NEWARK/LIBERTY CLEAR 74 60 61 N6 29.96R TETERBORO CLEAR 74 60 61 CALM 29.95R CALDWELL CLEAR 67 61 81 CALM 29.98R MORRISTOWN CLEAR 61 57 88 CALM 29.98R SOMERVILLE PTCLDY 62 60 93 CALM 29.95R SUSSEX CLEAR 59 59 100 CALM 30.00R ANDOVER N/A 61 59 93 CALM 30.00R TRENTON PTCLDY 70 61 73 CALM 29.96R MILLVILLE CLEAR 67 65 93 W3 29.96R FOG ATLANTIC CITY CLEAR 71 67 87 NW3 29.95R WRIGHTSTOWN NOT AVBL TOMS RIVER CLEAR 63 61 94 CALM 29.96R BELMAR CLEAR 69 64 84 NE3 29.97R $$ PAZ047>061-062-071-241100- EASTERN PENNSYLVANIA CITY SKY/WX TMP DP RH WIND PRES REMARKS PHILADELPHIA MOCLDY 75 64 68 NW3 29.97R ALLENTOWN PTCLDY 67 60 78 CALM 29.99R SCRANTON PTCLDY 65 57 75 E3 30.02R $$ CTZ002-004>006-009-010-012-RIZ004-006-007-MAZ004-011-015-241100- SOUTHERN NEW ENGLAND IN CT CITY SKY/WX TMP DP RH WIND PRES REMARKS BRADLEY INTL PTCLDY 63 59 87 NE5 29.94R HARTFORD CLEAR 68 61 78 CALM 29.95R DANBURY CLEAR 64 59 83 CALM 29.99R WTRBRY/OXFORD PTCLDY 64 55 72 N5 29.99R BRIDGEPORT CLEAR 73 59 61 N5 29.95R MERIDEN CLEAR 67 60 78 CALM 29.95R NEW HAVEN CLEAR 71 60 68 NW3 29.95R CHESTER FAIR 64 61 88 CALM 29.95R GROTON CLEAR 68 60 75 N5 29.93R WILLIMANTIC NOT AVBL IN RI CITY SKY/WX TMP DP RH WIND PRES REMARKS PROVIDENCE CLEAR 71 59 65 NW7 29.92R BLOCK ISLAND CLEAR 67 61 81 W6 29.94R WESTERLY CLEAR 64 58 80 CALM 29.93R IN MA CITY SKY/WX TMP DP RH WIND PRES REMARKS BOSTON PTCLDY 69 59 70 NW10 29.91R WORCESTER CLEAR 65 57 75 NW14 29.96R WESTFIELD CLEAR 64 59 83 NE7 29.95R PROVINCETOWN CLEAR 66 63 90 NW8 29.89R NANTUCKET CLEAR 69 61 75 N12 29.88S $$ ANZ330-335-338-340-345-350-353-355-241100- COASTAL MARINE OBSERVATIONS STATION/POSITION TIME SKY/WX TEMP WIND PRES VSBY WAVE AIR SEA DIR/SP/G HT/PER (UTC) (F) (DEG/KT/KT) (MB) (MI) (FT/S) NY HARB ENTRANCE 0850 75 73 50/ 6/ 6 1013.4 2/ 7 20S FIRE ISLAND 0850 75 74 10/ 6/ 8 1013.1 3/ 6 GREAT SOUTH BAY 0900 76 80 330/ 6/ 8 N/A 23 SSW MONTAUK P 0850 72 71 310/ 4/ 6 1013.6 3/ 7 15 E BARNEGAT LI 0922 75 N/A 2/ 6 HUDSON CANYON 0850 78 77 1013.0 3/ 6 KINGS POINT 0900 73 71 1013.8 EXECUTION ROCKS 0900 72 350/ 2/ 4 N/A CENTRAL LI SOUND 0900 74 73 320/ 6/ 8 N/A 0 EASTERN LI SOUND 0900 69 66 290/ 4/ 6 N/A ROBBINS REEF 0900 78 10/ 4/ 5 1013.3 $$ >>>>>>>>>>>>>>>>>>>>>>>>>>>> KEY <<<<<<<<<<<<<<<<<<<<<<<<<<< > < > SKY/WX - SKY CONDITION/PRESENT WEATHER < > TMP - TEMPERATURE IN FAHRENHEIT < > DP - DEWPOINT IN FAHRENHEIT < > RH - RELATIVE HUMIDITY IN PERCENT < > WIND - DIRECTION AND SPEED IN MPH < > PRES - MEAN SEA LEVEL PRESSURE IN INCHES OF HG < > WCI - WIND CHILL INDEX < > VSB - VISIBILITY IN MILES < > HX - HEAT INDEX < > TC - TEMPERATURE IN CELSIUS < > VRB - VARIABLE WIND DIRECTION < > < >>>>>>>>>>>>>>>>>>>>>>>>>>>> KEY <<<<<<<<<<<<<<<<<<<<<<<<<<<

USA.gov is the U.S. government's official web portal to all federal, state and local government web resources and services.